THOR AGENA D R/B

Last updated on Thu Mar 05 2026 00:02:20 GMT+0000 (Coordinated Universal Time)

1 00733U 64002A 26063.49847069 .00000345 00000+0 14020-3 0 9990 2 00733 99.1228 76.5530 0031918 273.6080 86.1453 14.34016860237552
UTC large
Height (km)
Speed (km/s)
/
Latitude / Longitude
Inclination (degrees)
Orbital Period (minutes)
Azimuth
Elevation
Range (km)
Doppler Factor

Next 0 passes for location: London (51.5072 / 0.1276)

Sorry there are no passes over London.